Location: Le Petit-Vavre
(46.5081°N, 1.5239°E)
Time: 13:37:42
(UTC+00:00)

YAOGAN 1 - Pass Details

Date: 03 March 2021
Orbit: 618 x 620 km, 97.9° (Epoch: 15 April)

Event Time Altitude Azimuth Distance (km) Brightness Sun altitude
Rises 19:13:55 0° 189° (S) 2,884 6.0 -16.4°
Reaches altitude 10° 19:16:16 10° 199° (SSW) 1,983 5.3 -16.8°
Maximum altitude 19:20:10 33° 263° (W) 1,048 4.4 -17.5°
Drops below altitude 10° 19:24:07 10° 329° (NNW) 1,998 5.7 -18.2°
Sets 19:26:30 0° 339° (NNW) 2,910 6.5 -18.6°
